TimeEDT,TemperatureF,Dew PointF,Humidity,Sea Level PressureIn,VisibilityMPH,Wind Direction,Wind SpeedMPH,Gust SpeedMPH,PrecipitationIn,Events,Conditions,WindDirDegrees,DateUTC
12:15 AM,51.8,28.4,41,30.26,10.0,South,5.8,-,N/A,,Clear,180,2013-03-11 04:15:00
12:35 AM,50.5,27.5,41,30.26,10.0,South,4.6,-,N/A,,Clear,180,2013-03-11 04:35:00
12:55 AM,48.6,27.3,44,30.25,10.0,South,3.5,-,N/A,,Clear,170,2013-03-11 04:55:00
1:15 AM,44.6,30.6,58,30.25,10.0,Calm,Calm,-,N/A,,Clear,0,2013-03-11 05:15:00
1:35 AM,43.2,29.5,59,30.25,10.0,Calm,Calm,-,N/A,,Clear,0,2013-03-11 05:35:00
1:55 AM,41.7,31.3,66,30.24,10.0,Calm,Calm,-,N/A,,Clear,0,2013-03-11 05:55:00
2:15 AM,41.0,32.0,70,30.23,10.0,Calm,Calm,-,N/A,,Clear,0,2013-03-11 06:15:00
2:35 AM,40.6,30.4,67,30.23,10.0,Calm,Calm,-,N/A,,Clear,0,2013-03-11 06:35:00
2:55 AM,39.2,30.9,72,30.23,10.0,Calm,Calm,-,N/A,,Clear,0,2013-03-11 06:55:00
3:15 AM,38.7,29.7,70,30.22,10.0,Calm,Calm,-,N/A,,Clear,0,2013-03-11 07:15:00
3:35 AM,36.7,30.2,77,30.22,10.0,Calm,Calm,-,N/A,,Clear,0,2013-03-11 07:35:00
3:55 AM,38.5,28.0,66,30.22,10.0,Calm,Calm,-,N/A,,Clear,0,2013-03-11 07:55:00
4:15 AM,36.3,30.0,78,30.20,10.0,Calm,Calm,-,N/A,,Clear,0,2013-03-11 08:15:00
4:35 AM,37.6,30.0,74,30.18,10.0,Calm,Calm,-,N/A,,Clear,0,2013-03-11 08:35:00
4:55 AM,39.7,27.9,63,30.18,10.0,Calm,Calm,-,N/A,,Clear,0,2013-03-11 08:55:00
5:15 AM,41.5,26.6,55,30.19,10.0,Calm,Calm,-,N/A,,Clear,0,2013-03-11 09:15:00
5:35 AM,39.7,27.7,62,30.19,10.0,Calm,Calm,-,N/A,,Clear,0,2013-03-11 09:35:00
5:55 AM,38.3,29.5,71,30.19,10.0,Calm,Calm,-,N/A,,Clear,0,2013-03-11 09:55:00
6:15 AM,38.1,30.4,74,30.18,10.0,Calm,Calm,-,N/A,,Clear,0,2013-03-11 10:15:00
6:35 AM,37.2,30.0,75,30.18,10.0,Calm,Calm,-,N/A,,Clear,0,2013-03-11 10:35:00
6:55 AM,36.1,30.4,80,30.19,10.0,Calm,Calm,-,N/A,,Clear,0,2013-03-11 10:55:00
7:15 AM,36.5,31.5,82,30.18,10.0,Calm,Calm,-,N/A,,Clear,0,2013-03-11 11:15:00
7:35 AM,37.8,31.8,79,30.18,10.0,Calm,Calm,-,N/A,,Clear,0,2013-03-11 11:35:00
7:55 AM,37.4,32.0,81,30.17,10.0,Calm,Calm,-,N/A,,Clear,0,2013-03-11 11:55:00
8:15 AM,39.9,35.8,85,30.18,10.0,Calm,Calm,-,N/A,,Clear,0,2013-03-11 12:15:00
8:35 AM,42.4,37.8,83,30.17,10.0,Calm,Calm,-,N/A,,Clear,0,2013-03-11 12:35:00
8:55 AM,44.6,40.6,86,30.17,10.0,Calm,Calm,-,N/A,,Clear,0,2013-03-11 12:55:00
9:15 AM,46.9,43.0,86,30.18,10.0,South,3.5,-,N/A,,Mostly Cloudy,190,2013-03-11 13:15:00
9:35 AM,49.6,45.9,87,30.18,10.0,SSE,3.5,-,N/A,,Overcast,150,2013-03-11 13:35:00
9:55 AM,52.0,47.8,86,30.18,10.0,South,4.6,-,N/A,,Overcast,170,2013-03-11 13:55:00
10:15 AM,52.9,48.4,85,30.17,10.0,SSE,6.9,-,N/A,,Overcast,150,2013-03-11 14:15:00
10:35 AM,53.2,48.7,85,30.17,10.0,South,8.1,-,N/A,,Overcast,180,2013-03-11 14:35:00
10:55 AM,53.6,48.6,83,30.17,10.0,South,6.9,-,N/A,,Overcast,170,2013-03-11 14:55:00
11:15 AM,54.5,49.1,82,30.16,10.0,SSE,5.8,-,N/A,,Overcast,160,2013-03-11 15:15:00
11:35 AM,54.5,48.7,81,30.16,10.0,SSE,8.1,-,N/A,,Overcast,150,2013-03-11 15:35:00
11:55 AM,55.9,49.1,78,30.15,10.0,South,6.9,-,N/A,,Overcast,170,2013-03-11 15:55:00
12:15 PM,58.3,50.0,74,30.14,10.0,South,6.9,-,N/A,,Overcast,170,2013-03-11 16:15:00
12:35 PM,59.4,50.0,71,30.14,10.0,South,10.4,16.1,N/A,,Overcast,180,2013-03-11 16:35:00
12:55 PM,59.7,50.0,70,30.14,10.0,South,10.4,-,N/A,,Overcast,180,2013-03-11 16:55:00
1:15 PM,61.0,50.5,68,30.12,10.0,South,10.4,-,N/A,,Overcast,190,2013-03-11 17:15:00
1:35 PM,61.5,50.5,67,30.10,10.0,South,11.5,17.3,N/A,,Overcast,170,2013-03-11 17:35:00
1:55 PM,64.9,51.6,62,30.09,10.0,SSE,15.0,19.6,N/A,,Mostly Cloudy,150,2013-03-11 17:55:00
2:15 PM,66.2,52.2,61,30.07,10.0,SE,6.9,-,N/A,,Mostly Cloudy,140,2013-03-11 18:15:00
2:35 PM,66.6,52.0,59,30.06,10.0,SSE,12.7,18.4,N/A,,Mostly Cloudy,150,2013-03-11 18:35:00
2:55 PM,66.2,51.6,59,30.04,10.0,SSE,15.0,21.9,N/A,,Mostly Cloudy,150,2013-03-11 18:55:00
3:15 PM,66.7,51.8,59,30.02,10.0,SSE,9.2,-,N/A,,Overcast,150,2013-03-11 19:15:00
3:35 PM,66.0,50.9,58,30.01,10.0,South,11.5,17.3,N/A,,Overcast,170,2013-03-11 19:35:00
3:55 PM,66.2,51.3,59,30.01,10.0,South,12.7,19.6,N/A,,Overcast,170,2013-03-11 19:55:00
4:15 PM,64.9,51.4,62,30.00,10.0,SSE,10.4,20.7,N/A,,Overcast,160,2013-03-11 20:15:00
4:35 PM,66.4,52.0,60,29.98,10.0,SSE,12.7,18.4,N/A,,Mostly Cloudy,150,2013-03-11 20:35:00
4:55 PM,66.2,52.3,61,29.98,10.0,SE,15.0,18.4,N/A,,Mostly Cloudy,140,2013-03-11 20:55:00
5:15 PM,66.2,52.3,61,29.99,10.0,SSE,13.8,-,N/A,,Scattered Clouds,160,2013-03-11 21:15:00
5:35 PM,65.7,51.8,61,29.97,10.0,SSE,10.4,25.3,N/A,,Scattered Clouds,160,2013-03-11 21:35:00
5:55 PM,65.5,51.8,61,29.96,10.0,SSE,10.4,18.4,N/A,,Scattered Clouds,150,2013-03-11 21:55:00
6:15 PM,65.3,51.6,61,29.96,10.0,SSE,9.2,-,N/A,,Mostly Cloudy,160,2013-03-11 22:15:00
6:35 PM,64.9,51.3,61,29.95,10.0,SSE,10.4,18.4,N/A,,Mostly Cloudy,160,2013-03-11 22:35:00
6:55 PM,64.4,51.3,62,29.95,10.0,SE,10.4,17.3,N/A,,Scattered Clouds,140,2013-03-11 22:55:00
7:15 PM,63.7,51.8,65,29.96,10.0,SSE,11.5,-,N/A,,Scattered Clouds,160,2013-03-11 23:15:00
7:35 PM,63.5,52.2,67,29.97,10.0,South,10.4,19.6,N/A,,Mostly Cloudy,170,2013-03-11 23:35:00
7:55 PM,63.0,52.2,68,29.97,10.0,South,11.5,-,N/A,,Mostly Cloudy,170,2013-03-11 23:55:00
8:15 PM,62.6,52.2,69,29.96,10.0,SSE,9.2,-,N/A,,Scattered Clouds,150,2013-03-12 00:15:00
8:35 PM,62.1,52.2,70,29.97,10.0,SSE,8.1,-,N/A,,Scattered Clouds,150,2013-03-12 00:35:00
8:55 PM,61.9,52.0,70,29.97,10.0,SSE,8.1,-,N/A,,Mostly Cloudy,160,2013-03-12 00:55:00
9:15 PM,61.7,51.8,70,29.97,10.0,SSE,8.1,-,N/A,,Mostly Cloudy,160,2013-03-12 01:15:00
9:35 PM,61.7,51.8,70,29.96,10.0,SSE,9.2,16.1,N/A,,Scattered Clouds,150,2013-03-12 01:35:00
9:55 PM,61.2,52.0,72,29.95,10.0,SSE,10.4,17.3,N/A,Rain,Light Rain,150,2013-03-12 01:55:00
10:15 PM,60.8,52.3,74,29.96,10.0,SSE,9.2,16.1,N/A,,Light Drizzle,160,2013-03-12 02:15:00
10:35 PM,60.8,52.7,75,29.96,10.0,SSE,8.1,17.3,N/A,,Overcast,160,2013-03-12 02:35:00
10:55 PM,60.6,53.1,76,29.95,10.0,SSE,10.4,16.1,N/A,Rain,Light Rain,150,2013-03-12 02:55:00
11:15 PM,58.6,54.5,86,29.95,10.0,SSE,8.1,-,N/A,Rain,Light Rain,160,2013-03-12 03:15:00
11:35 PM,58.1,54.9,89,29.93,10.0,SSE,11.5,-,N/A,Rain,Light Rain,150,2013-03-12 03:35:00
11:55 PM,57.6,55.0,91,29.93,10.0,SSE,8.1,-,0.01,Rain,Rain,160,2013-03-12 03:55:00